Simultaneous Nadir Overpasses (SNOs) Predictions

Prediction of SNOs between METOP-B and NPP Satellite Orbit:

Table of predicted SNOs for the next 14.0 days since TLE Epoch: 12/13/2014
Index Date (METOP-B) Time (METOP-B) Lat,Lon (METOP-B) SZA (METOP-B ) Date (NPP) Time (NPP) Lat,Lon (NPP) SZA (NPP ) Distance(km) Time Diff (sec)
1 12/26/2014 21:43:17 73.94,-150.98 97.25 12/26/2014 21:42:11 73.91,-154.20 97.34 99.39 66
2 12/26/2014 22:34:01 -73.85, 16.15 82.83 12/26/2014 22:32:54 -73.87, 13.22 82.72 90.40 67
3 12/26/2014 23:24:45 73.62,-177.07 96.95 12/26/2014 23:23:35 73.62,-178.90 97.02 57.15 70




NCC Satellite Simultaneous Nadir Overpasses (SNOs) Prediction Service
